Regional Weather Roundup
Issued by NWS

Home | Current Version | Previous Version | Graphics & Text | Print | Product List | Glossary Off
Versions: 1 2 3 4 5 6 7 8 9 10 11 12 13 14 15 16 17 18 19 20 21 22 23 24 25 26 27 28 29 30 31 32 33 34 35 36 37 38 39 40 41 42 43 44 45 46 47 48 49 50

000
ASUS43 KDMX 050007
RWRIA

WEATHER ROUNDUP FOR IOWA
NATIONAL WEATHER SERVICE DES MOINES IA
700 PM CDT SAT JUL 04 2015

NOTE: "FAIR" INDICATES FEW OR NO CLOUDS BELOW 12,000 FEET WITH NO
SIGNIFICANT WEATHER AND/OR OBSTRUCTIONS TO VISIBILITY.

* - THESE STATIONS ARE NOT NWS STATIONS...THUS NOT UNDER NWS
QUALITY CONTROL.  THEY ALSO DO NOT REPORT WEATHER SUCH
AS PRECIPITATION OR FOG.

IAZ001>003-012>014-020>022-031>034-043>046-050100-
   NORTHWEST IOWA

CITY           SKY/WX    TMP DP  RH WIND       PRES   REMARKS
CARROLL *      SUNNY     77  61  57 S8        29.94S
CHEROKEE *     MOSUNNY   77  63  61 S8        29.92S
DENISON *      SUNNY     77  63  61 S7        29.92S
LE MARS *      SUNNY     79  64  61 S13       29.91F HX  81
ORANGE CITY *  SUNNY     77  64  65 S10       29.91F
SHELDON *      SUNNY     79  66  65 S14       29.90F HX  81
SIOUX CITY     SUNNY     81  64  56 S13       29.90S HX  82
6HR MIN TEMP:  79; 6HR MAX TEMP:  83;

SPENCER        SUNNY     80  58  46 S10       29.92F HX  80
6HR MIN TEMP:  79; 6HR MAX TEMP:  83;

STORM LAKE *   SUNNY     77  61  57 SW12      29.94F
$$

IAZ055>058-069>071-079>083-090>094-050100-
   SOUTHWEST IOWA

CITY           SKY/WX    TMP DP  RH WIND       PRES   REMARKS
ATLANTIC *     SUNNY     81  61  50 S6        29.94F HX  81
AUDUBON *      SUNNY     79  64  61 S5        29.96S HX  81
CLARINDA *     SUNNY     81  61  50 S5        29.95F HX  81
COUNCIL BLFS * SUNNY     77  64  65 S7        29.94S
CRESTON *      SUNNY     77  61  57 S6        29.96F
HARLAN  *      SUNNY     79  64  61 SW10      29.97S HX  81
LAMONI         MOSUNNY   78  62  57 SE5       29.96F HX  80
6HR MIN TEMP:  78; 6HR MAX TEMP:  82;

RED OAK *      SUNNY     81  61  50 S9        29.94S HX  81
SHENANDOAH *   SUNNY     81  64  57 S6        29.93F HX  82
$$

IAZ047>049-059>061-072>074-084-050100-
   CENTRAL IOWA

CITY           SKY/WX    TMP DP  RH WIND       PRES   REMARKS
AMES           SUNNY     77  63  61 S5        29.95F
6HR MIN TEMP:  77; 6HR MAX TEMP:  81;

ANKENY *       SUNNY     77  64  65 SE6       29.95S
CHARITON *     SUNNY     79  63  57 S6        29.96F HX  80
DES MOINES     CLOUDY    80  59  48 S8        29.95S HX  81
6HR MIN TEMP:  79; 6HR MAX TEMP:  82;

GRINNELL*      SUNNY     77  58  51 S5        29.98S
KNOXVILLE *    SUNNY     79  63  57 S5        29.95S HX  80
MARSHALLTOWN   SUNNY     76  61  59 S6        29.96F
6HR MIN TEMP:  76; 6HR MAX TEMP:  79;

PELLA *        SUNNY     79  65  60 S3        29.98S HX  81
PERRY *          N/A     79  61  53 S6        29.95S HX  80
$$

IAZ004>006-015-016-023>025-035-036-050100-
   NORTH CENTRAL IOWA

CITY           SKY/WX    TMP DP  RH WIND       PRES   REMARKS
ALGONA *       SUNNY     79  59  50 S10       29.94F HX  80
CLARION *      SUNNY     79  59  50 S6        29.95F HX  80
ESTHERVILLE    MOSUNNY   77  61  57 S12       29.93S
6HR MIN TEMP:  77; 6HR MAX TEMP:  80;

FORT DODGE *   MOSUNNY   79  59  50 S6        29.95F HX  80
MASON CITY     SUNNY     78  60  53 S6        29.96F
6HR MIN TEMP:  78; 6HR MAX TEMP:  81;

FOREST CITY *  SUNNY     73  59  60 S5        29.95F
IOWA FALLS *     N/A     77  63  61 S6        29.97S
$$

IAZ007>011-017>019-026>030-037>042-050>054-066-050100-
   NORTHEAST IOWA

CITY           SKY/WX    TMP DP  RH WIND       PRES   REMARKS
CEDAR RAPIDS   SUNNY     76  65  68 S3        29.97S
6HR MIN TEMP:  76; 6HR MAX TEMP:  79;

CHARLES CITY * SUNNY     77  63  61 S7        29.97F
CLINTON *      SUNNY     77  61  57 CALM      30.00F
DECORAH *        N/A    N/A N/A N/A MISG        N/A
DUBUQUE        SUNNY     76  62  62 S3        29.99S
6HR MIN TEMP:  76; 6HR MAX TEMP:  79;

MONTICELLO *   SUNNY     77  64  65 S5        29.97F
OELWEIN *      SUNNY     77  63  61 S5        29.98F
WATERLOO       SUNNY     78  60  53 S6        29.95F
6HR MIN TEMP:  78; 6HR MAX TEMP:  81;

$$

IAZ064-065-067-068-078-050100-
   EAST CENTRAL IOWA

CITY           SKY/WX    TMP DP  RH WIND       PRES   REMARKS
DAVENPORT      SUNNY     77  62  59 W3        29.98F
6HR MIN TEMP:  77; 6HR MAX TEMP:  79;

IOWA CITY      SUNNY     77  62  59 S5        29.98S
6HR MIN TEMP:  77; 6HR MAX TEMP:  80;

MT. PLEASANT * SUNNY     82  57  43 CALM      29.98S HX  81
MUSCATINE *    SUNNY     79  59  50 S5        29.97S HX  80
QUAD CITIES    SUNNY     78  61  55 CALM      29.97S HX  80
6HR MIN TEMP:  78; 6HR MAX TEMP:  82;

$$

IAZ062-063-075>077-085>089-095>099-050100-
   SOUTHEAST IOWA

CITY           SKY/WX    TMP DP  RH WIND       PRES   REMARKS
BURLINGTON     SUNNY     77  64  64 CALM      29.98S HAZE
6HR MIN TEMP:  76; 6HR MAX TEMP:  81;

FAIRFIELD *    SUNNY     79  61  53 CALM      29.97F HX  80
FORT MADISON * SUNNY     77  63  61 CALM      29.98F
KEOKUK *       SUNNY     79  63  57 CALM      29.97S HX  80
OSKALOOSA *      N/A     77  64  63 CALM      29.97S
CENTERVILLE *  SUNNY     77  63  61 SE3       29.98F
OTTUMWA        SUNNY     78  63  59 CALM      29.95F HX  80
6HR MIN TEMP:  76; 6HR MAX TEMP:  79;

WASHINGTON *   SUNNY     77  64  65 CALM      29.99S
$$

ABBREVIATIONS USED IN REMARKS
   TC - TEMPERATURES IN CELSIUS
  WCI - WIND CHILL INDEX
   HX - HEAT INDEX
  VSB - VISIBILITY
$$



USA.gov is the U.S. government's official web portal to all federal, state and local government web resources and services.